CT1ETE Weather Reports


time (UTC)temp
C
wind
direction
speed
KPH
gust
KPH
rain 1hr
cm
rain 24hr
cm
rain mn
cm
humidity
%
barometer
mb
20260903022219 25 77 9.7 14.5 0.00 0.00 0.00 41 1020.5
20260903020031 25 106 9.7 12.9 0.00 0.00 0.00 42 1020.6
20260903014527 25 126 8.0 14.5 0.00 0.00 0.00 43 1020.7
20260903013718 25 92 8.0 14.5 0.00 0.00 0.00 46 1020.8
20260903011524 23 94 6.4 12.9 0.00 0.00 0.00 51 1020.8
20260903010024 23 128 4.8 11.3 0.00 0.00 0.00 60 1021.0
20260903004524 24 128 3.2 8.0 0.00 0.00 0.00 56 1021.0
20260903004409 24 128 6.4 11.3 0.00 0.00 0.00 55 1021.0
20260903001524 24 128 4.8 8.0 0.00 0.00 0.00 56 1021.1
20260903000024 25 130 6.4 12.9 0.00 0.00 0.00 56 1021.1
20260902234522 25 109 6.4 12.9 0.00 0.00 0.00 55 1021.1
20260902233022 25 132 9.7 16.1 0.00 0.00 0.00 54 1021.3
20260902231522 24 90 6.4 16.1 0.00 0.00 0.00 57 1021.1
20260902230023 23 110 3.2 6.4 0.00 0.00 0.00 61 1021.0
20260902224520 24 110 3.2 6.4 0.00 0.00 0.00 60 1021.0
20260902223019 24 110 3.2 6.4 0.00 0.00 0.00 58 1021.0
20260902221518 24 110 3.2 6.4 0.00 0.00 0.00 59 1021.0
20260902220018 24 110 4.8 9.7 0.00 0.00 0.00 61 1021.1
20260902215218 25 153 1.6 6.4 0.00 0.00 0.00 57 1021.1
20260902213020 25 153 3.2 3.2 0.00 0.00 0.00 57 1021.2
20260902211514 25 153 3.2 4.8 0.00 0.00 0.00 59 1021.2
20260902210012 25 153 3.2 8.0 0.00 0.00 0.00 59 1021.3
20260902204512 25 154 3.2 4.8 0.00 0.00 0.00 60 1021.2
20260902203707 24 154 4.8 8.0 0.00 0.00 0.00 62 1021.1
20260902201510 24 227 3.2 4.8 0.00 0.00 0.00 63 1021.2
20260902200007 25 227 1.6 3.2 0.00 0.00 0.00 63 1021.0
20260902194506 25 227 1.6 3.2 0.00 0.00 0.00 62 1020.8
20260902193004 25 227 4.8 8.0 0.00 0.00 0.00 61 1020.7
20260902191504 26 227 6.4 12.9 0.00 0.00 0.00 60 1020.6
20260902190004 27 236 9.7 16.1 0.00 0.00 0.00 57 1020.5
20260902184502 28 246 8.0 12.9 0.00 0.00 0.00 53 1020.5
20260902183002 28 240 8.0 14.5 0.00 0.00 0.00 49 1020.6
20260902181502 29 266 9.7 14.5 0.00 0.00 0.00 49 1020.6
20260902180000 30 247 9.7 16.1 0.00 0.00 0.00 49 1020.6
20260902174500 30 277 11.3 17.7 0.00 0.00 0.00 48 1020.4
20260902172959 30 267 9.7 16.1 0.00 0.00 0.00 47 1020.4
20260902171459 31 238 9.7 17.7 0.00 0.00 0.00 45 1020.4
20260902165959 31 258 8.0 16.1 0.00 0.00 0.00 42 1020.4
20260902164458 31 284 9.7 17.7 0.00 0.00 0.00 41 1020.5
20260902162958 31 244 11.3 17.7 0.00 0.00 0.00 39 1020.5
20260902162157 32 278 8.0 16.1 0.00 0.00 0.00 39 1020.6
20260902155957 31 322 11.3 19.3 0.00 0.00 0.00 40 1020.6
20260902154457 31 269 9.7 20.9 0.00 0.00 0.00 41 1020.6
20260902153658 31 262 11.3 22.5 0.00 0.00 0.00 41 1020.7
20260902151455 31 254 9.7 17.7 0.00 0.00 0.00 40 1020.7
20260902145953 31 254 9.7 17.7 0.00 0.00 0.00 42 1020.8
20260902144452 31 294 8.0 16.1 0.00 0.00 0.00 43 1020.8
20260902142948 31 272 8.0 16.1 0.00 0.00 0.00 44 1020.8
20260902141447 31 269 9.7 14.5 0.00 0.00 0.00 45 1020.9
20260902135947 30 250 8.0 14.5 0.00 0.00 0.00 49 1021.0
20260902134448 30 295 8.0 17.7 0.00 0.00 0.00 48 1021.1
20260902132947 30 250 8.0 16.1 0.00 0.00 0.00 49 1021.2
20260902131453 30 236 6.4 14.5 0.00 0.00 0.00 51 1021.3
20260902125941 29 234 8.0 16.1 0.00 0.00 0.00 53 1021.3
20260902124439 28 204 6.4 17.7 0.00 0.00 0.00 53 1021.4
20260902122939 28 238 6.4 14.5 0.00 0.00 0.00 54 1021.6
20260902121439 28 240 8.0 12.9 0.00 0.00 0.00 55 1021.7
20260902120635 27 270 8.0 14.5 0.00 0.00 0.00 56 1021.8
20260902114439 27 226 8.0 14.5 0.00 0.00 0.00 56 1022.0
20260902112939 27 229 6.4 12.9 0.00 0.00 0.00 57 1022.1
20260902111439 26 247 6.4 11.3 0.00 0.00 0.00 60 1022.1
20260902110643 26 240 4.8 11.3 0.00 0.00 0.00 60 1022.2
20260902104439 25 245 3.2 11.3 0.00 0.00 0.00 61 1022.2
20260902102937 25 238 3.2 8.0 0.00 0.00 0.00 64 1022.2
20260902101435 25 248 3.2 6.4 0.00 0.00 0.00 63 1022.2
20260902095934 23 246 3.2 6.4 0.00 0.00 0.00 67 1022.2
20260902095143 23 244 4.8 8.0 0.00 0.00 0.00 66 1022.2
20260902092935 23 248 4.8 8.0 0.00 0.00 0.00 67 1022.2
20260902091434 23 194 3.2 6.4 0.00 0.00 0.00 69 1021.9
20260902085934 22 108 1.6 4.8 0.00 0.00 0.00 70 1021.7
20260902084435 22 109 1.6 3.2 0.00 0.00 0.00 71 1021.6
20260902082934 22 109 0.0 3.2 0.00 0.00 0.00 70 1021.6
20260902081434 21 109 1.6 3.2 0.00 0.00 0.00 72 1021.4
20260902075934 20 109 0.0 3.2 0.00 0.00 0.00 75 1021.3
20260902074434 20 109 0.0 4.8 0.00 0.00 0.00 77 1021.3
20260902072934 19 109 3.2 4.8 0.00 0.00 0.00 80 1021.2
20260902071435 18 109 0.0 4.8 0.00 0.00 0.00 81 1021.1
20260902065933 17 109 0.0 3.2 0.00 0.00 0.00 83 1020.9
20260902064432 17 109 3.2 4.8 0.00 0.00 0.00 83 1020.7
20260902062932 17 109 3.2 6.4 0.00 0.00 0.00 84 1020.6
20260902061433 16 109 4.8 6.4 0.00 0.00 0.00 84 1020.6
20260902055933 16 109 3.2 4.8 0.00 0.00 0.00 84 1020.6
20260902054431 17 109 0.0 3.2 0.00 0.00 0.00 83 1020.5
20260902052928 17 109 0.0 0.0 0.00 0.00 0.00 82 1020.4
20260902051427 17 109 0.0 3.2 0.00 0.00 0.00 82 1020.3
20260902050620 17 109 0.0 3.2 0.00 0.00 0.00 82 1020.4
20260902044424 17 109 3.2 4.8 0.00 0.00 0.00 83 1020.3
20260902042923 17 109 3.2 6.4 0.00 0.00 0.00 83 1020.1
20260902041420 17 109 1.6 3.2 0.00 0.00 0.00 83 1020.2
20260902035918 17 109 1.6 3.2 0.00 0.00 0.00 83 1020.3
20260902034416 17 109 1.6 3.2 0.00 0.00 0.00 83 1020.2
20260902033615 17 109 0.0 0.0 0.00 0.00 0.00 82 1020.2
20260902032816 17 109 0.0 4.8 0.00 0.00 0.00 82 1020.1
20260902025916 17 109 3.2 6.4 0.00 0.00 0.00 82 1020.0
20260902024416 17 109 3.2 6.4 0.00 0.00 0.00 83 1019.9